La Junta, CO

1:19 PM MDT on April 27, 2017 (GMT -0600)
La Junta Municipal

Weather History for KLHX - October, 2012

Change the Weather History Date:

Wednesday, October 3, 2012

  Actual Average Record
Temperature  
Mean Temperature 68 °F 59 °F  
Max Temperature 89 °F 75 °F 93 °F (1954)
Min Temperature 46 °F 44 °F 32 °F (1999)
Degree Days  
Heating Degree Days 0 7  
Month to date heating degree days 5 19  
Since 1 July heating degree days 35 92  
Cooling Degree Days 3 1  
Month to date cooling degree days 3 3  
Year to date cooling degree days 1733 1219  
Growing Degree Days 18 (Base 50)    
Moisture  
Dew Point 31 °F    
Average Humidity 34    
Maximum Humidity 61    
Minimum Humidity 7    
Precipitation  
Precipitation 0.00 in 0.02 in 0.25 in (1984)
Month to date precipitation 0.00 0.08  
Year to date precipitation 5.26  
Sea Level Pressure  
Sea Level Pressure 29.80 in    
Wind  
Wind Speed 15 mph (NW)    
Max Wind Speed 43 mph    
Max Gust Speed 53 mph    
Visibility 10 miles    
Events      
T = Trace of Precipitation, MM = Missing Value Source: NWS Daily Summary

Daily Weather History Graph

Daily Weather History Graph

Search for Another Location

Airport or City:

Trip Planner

Search our weather history database for the weather conditions in past years. The results will help you decide how hot, cold, wet, or windy it might be!

Date:

Astronomy

Oct. 03, 2012 Rise Set
Actual Time 6:51 AM MDT 6:33 PM MDT
Civil Twilight 6:25 AM MDT 6:59 PM MDT
Nautical Twilight 5:55 AM MDT 7:29 PM MDT
Astronomical Twilight 5:24 AM MDT 8:00 PM MDT
Moon 8:31 PM MDT (10/3) 10:13 AM MDT (10/3)
Length of Visible Light 12h 33m
Length of Day
11h 41m
Waning Gibbous, 88% of the Moon is Illuminated
Oct 3
Waning Gibbous
Oct 8
Last Quarter
Oct 15
New
Oct 21
First Quarter
Oct 29
Full

Hourly Weather History & Observations

Time (MDT) Temp. Dew Point Humidity Pressure Visibility Wind Dir Wind Speed Gust Speed Precip Events Conditions
12:53 AM 55.0 °F 34.0 °F 45% 29.75 in 10.0 mi West 9.2 mph - N/A   Clear
1:53 AM 54.0 °F 35.1 °F 49% 29.74 in 10.0 mi NW 5.8 mph - N/A   Clear
2:53 AM 53.1 °F 35.1 °F 50% 29.73 in 10.0 mi SSE 3.5 mph - N/A   Clear
3:53 AM 48.0 °F 36.0 °F 63% 29.75 in 10.0 mi West 8.1 mph - N/A   Clear
4:53 AM 48.9 °F 34.0 °F 56% 29.76 in 10.0 mi West 12.7 mph - N/A   Clear
5:53 AM 50.0 °F 32.0 °F 50% 29.76 in 10.0 mi West 16.1 mph - N/A   Clear
6:53 AM 52.0 °F 30.9 °F 45% 29.77 in 10.0 mi West 17.3 mph - N/A   Clear
7:53 AM 54.0 °F 30.9 °F 41% 29.79 in 10.0 mi West 11.5 mph - N/A   Clear
9:53 AM 69.1 °F 30.9 °F 24% 29.76 in 10.0 mi West 20.7 mph - N/A   Clear
10:53 AM 75.9 °F 34.0 °F 22% 29.73 in 10.0 mi West 10.4 mph - N/A   Clear
11:53 AM 84.0 °F 28.9 °F 14% 29.72 in 10.0 mi WNW 11.5 mph - N/A   Clear
12:53 PM 87.1 °F 24.1 °F 10% 29.68 in 10.0 mi WNW 6.9 mph - N/A   Clear
1:53 PM 87.1 °F 21.9 °F 9% 29.65 in 10.0 mi West 18.4 mph 26.5 mph N/A   Clear
2:53 PM 89.1 °F 23.0 °F 9% 29.65 in 10.0 mi WNW 12.7 mph - N/A   Clear
3:53 PM 88.0 °F 19.0 °F 8% 29.66 in 10.0 mi North 3.5 mph - N/A   Clear
4:53 PM 88.0 °F 18.0 °F 8% 29.67 in 10.0 mi NW 4.6 mph - N/A   Clear
5:53 PM 86.0 °F 21.0 °F 9% 29.67 in 10.0 mi East 3.5 mph - N/A   Clear
7:53 PM 72.0 °F 32.0 °F 23% 29.73 in 10.0 mi East 6.9 mph - N/A   Clear
8:42 PM 66.2 °F 35.6 °F 32% 29.96 in 8.0 mi NNE 39.1 mph 49.5 mph N/A   Squalls
8:53 PM 63.0 °F 35.1 °F 35% 29.86 in 6.0 mi North 39.1 mph 48.3 mph N/A   Haze
9:03 PM 62.6 °F 35.6 °F 37% 30.00 in 9.0 mi NNE 31.1 mph 50.6 mph N/A   Mostly Cloudy
9:53 PM 57.9 °F 35.1 °F 42% 29.94 in 10.0 mi NNE 32.2 mph 44.9 mph N/A   Mostly Cloudy
10:07 PM 57.2 °F 35.6 °F 44% 30.09 in 10.0 mi NNE 38.0 mph 47.2 mph N/A   Scattered Clouds
10:53 PM 53.1 °F 34.0 °F 48% 30.01 in 10.0 mi North 33.4 mph 51.8 mph N/A   Scattered Clouds
11:53 PM 48.0 °F 32.0 °F 54% 30.14 in 10.0 mi North 25.3 mph 36.8 mph N/A   Clear